User: anonymous   Login
Location: Beuerbach
(48.1459°N, 10.9174°E)
Time: 18:46:38
(UTC+00:00)
Language:

Cosmos 1400 Rocket - Orbit

View from above orbital plane
View from above orbital plane
View from above satellite
View from above satellite

Ground track
Ground track

The orbit data is extracted from the following two-line orbital elements,

1 13403U 82079B   24205.45399756  .00009929  00000-0  52500-3 0  9992
2 13403  81.1509 170.0279 0029658   9.3111 350.8660 15.14972714287622
Epoch (UTC): 23 July 2024 10:53:45
Eccentricity: 0.0029658
inclination: 81.1509°
perigee height: 500 km
apogee height: 541 km
right ascension of ascending node: 170.0279°
argument of perigee: 9.3111°
revolutions per day: 15.14972714
mean anomaly at epoch: 350.8660°
orbit number at epoch: 28762

The dashed part of the orbit path shows where the satellite is in the earth's shadow,  

DLR